Regional Weather Roundup
Issued by NWS Jackson, KY

Home | Current Version | Previous Version | Graphics & Text | Print | Product List | Glossary On
Versions: 1 2 3 4 5 6 7 8 9 10 11 12 13 14 15 16 17 18 19 20 21 22 23 24 25 26 27 28 29 30 31 32 33 34 35 36 37 38 39 40 41 42 43 44 45 46 47 48 49 50
000
ASUS43 KJKL 021910
RWRJKL

EAST KENTUCKY HOURLY WEATHER ROUNDUP
NATIONAL WEATHER SERVICE JACKSON KY
200 PM EST MON MAR 02 2015

NOTE: "FAIR" INDICATES FEW OR NO CLOUDS BELOW 12,000 FEET WITH
NO SIGNIFICANT WEATHER AND/OR OBSTRUCTIONS TO VISIBILITY.

* THESE REPORTS ARE NOT UNDER NWS QUALITY CONTROL AND MAY NOT
  REPORT WEATHER SUCH AS PRECIPITATION AND FOG.

KYZ079-080-083-085-087-088-110-112-115-119-120-022000
...EASTERN KENTUCKY...

CITY           SKY/WX    TMP DP  RH WIND       PRES   REMARKS
JACKSON        SUNNY     41  20  43 CALM      30.39F
LONDON         SUNNY     42  25  50 VRB5      30.39F
SOMERSET*      MOSUNNY   39  27  60 N8        30.42F WCI  34
MONTICELLO*    SUNNY     43  29  58 NE5       30.43F
MIDDLESBORO*   SUNNY    N/A N/A N/A CALM      30.39
HAZARD APT*    CLEAR     45  25  45 CALM      30.38F
BLACK MTN*       N/A     32  32 100 N6          N/A  WCI  26
PIKEVILLE APT* SUNNY     39  21  48 NW7       30.37F WCI  34
BIG SANDY*     CLEAR     41  17  38 N6        30.39F
MOREHEAD APT*  PTCLDY    36  21  55 VRB6      30.46F WCI  31
$$

KYZ035-036-041-042-044-050-067-078-099-022000
...CENTRAL KENTUCKY...

CITY           SKY/WX    TMP DP  RH WIND       PRES   REMARKS
MT STERLING*   SUNNY     34  23  64 NE9       30.45F WCI  26
FLEMING/MASON* SUNNY     32  18  55 N6        30.46F WCI  26
DANVILLE*      MOSUNNY   36  27  69 N3        30.44F
RICHMOND*      MOSUNNY   36  21  55 N7        30.42F WCI  30
LEXINGTON      MOSUNNY   35  21  56 NE9       30.45F WCI  28
FRANKFORT      SUNNY     35  20  54 SE6       30.44F WCI  30
$$

KYZ091>093-OHZ055-061-077-WVZ005-015-034-035-042-022000
...SOUTHERN OHIO/WEST VIRGINIA...

CITY           SKY/WX    TMP DP  RH WIND       PRES   REMARKS
COVINGTON      PTSUNNY   32  15  49 CALM      30.46F
COLUMBUS       PTSUNNY   30  13  49 VRB5      30.48F WCI  25
DAYTON         PTSUNNY   29  13  51 NE5       30.49F WCI  24
WILMINGTON     SUNNY     26  13  57 NE9       30.46F WCI  17
HUNTINGTON     SUNNY     37  19  48 VRB6      30.43F WCI  32
CHARLESTON     MOSUNNY   39  21  48 NW6       30.41F WCI  35
PINEVILLE*     SUNNY     42  26  52 MISG      30.39F
BECKLEY        SUNNY     35  16  45 N10G21    30.31F WCI  27
BLUEFIELD      SUNNY     39  23  52 NW12G17   30.28F WCI  32
$$

VAZ002-007-008-TNZ017-027-036-066-071-022000
...SOUTHWEST VIRGINIA/EAST TENNESSEE...

CITY           SKY/WX    TMP DP  RH WIND       PRES   REMARKS
WISE*          SUNNY     39  23  52 N7        30.32F WCI  34
JONESVILLE*    CLEAR     41  27  56 CALM      30.38F
ABINGDON*      MOSUNNY   42  27  55 NW5       30.32F
BRISTOL        MOSUNNY   46  32  58 CALM      30.35F
KNOXVILLE      CLOUDY    45  36  70 NE10      30.36F
OAK RIDGE      SUNNY     44  33  65 NE8       30.40F
CROSSVILLE     MOSUNNY   38  31  76 E5        30.35F WCI  34
NASHVILLE      MOSUNNY   45  28  51 E5        30.41F
$$

...KEY TO REMARKS...
VSB - VISIBILITY IN MILES
WCI - WIND CHILL INDEX
HX  - HEAT INDEX

$$



USA.gov is the U.S. government's official web portal to all federal, state and local government web resources and services.